User: anonymous   Login
Location: Unspecified
(0.0000°N, 0.0000°E)
Time: 05:40:00
(UTC+00:00)
Language:

Kosmos-2004 - Orbit

View from above orbital plane
View from above orbital plane
View from above satellite
View from above satellite

Ground track
Ground track

The orbit data is extracted from the following two-line orbital elements,

1 19826U 89017A   24165.92215795  .00000091  00000-0  82372-4 0  9995
2 19826  82.9519 103.5068 0031230 125.7416 299.0761 13.72435722767909
Epoch (UTC): 13 June 2024 22:07:54
Eccentricity: 0.0031230
inclination: 82.9519°
perigee height: 968 km
apogee height: 1014 km
right ascension of ascending node: 103.5068°
argument of perigee: 125.7416°
revolutions per day: 13.72435722
mean anomaly at epoch: 299.0761°
orbit number at epoch: 76790

The dashed part of the orbit path shows where the satellite is in the earth's shadow,  

DLR